Date String (YYYY-MM-DD hh:mm:ss) UTC,Instrument flags,absolute air pressure of the measurement (hPa),sample flow rate (lpm),inlet stack bypass flow (lpm),air temperature of the measurement (°C),ambient temperature measured by the external sensor (°C),aerosol sample conditioner tube jacket temperature (°C),OPC LED temperature (°C),internal box temperature (°C),relative humidity of the measurement (%),span deviation,mass concentration of particles derived from Lorenz-Mie calculation of OPC scattering (μg/m³),mass concentration of particles derived from Lorenz-Mie calculation of OPC scattering (μg/m³),mass concentration of particles derived from Lorenz-Mie calculation of OPC scattering (μg/m³)
DateTimeUTC,F1_M11,P_M11,Q1_M11,Q2_M11,T1_M11,T2_M11,T3_M11,T4_M11,T5_M11,U1_M11,ZSPAN_M11,X2_M11,X0_M11,X1_M11
2023-11-20 04:00:00,SystemResetWarning,0823.0,5.00,000.00,025.8,024.9,000.0,034.1,027.1,16.0,0000.0,0001.58,0003.70,0001.39
2023-11-20 04:01:00,SystemResetWarning,0823.0,5.00,000.00,025.8,024.9,000.0,034.1,027.1,16.0,0000.0,0001.57,0003.56,0001.39
2023-11-20 04:02:00,SystemResetWarning,0823.0,5.00,000.00,025.8,024.8,000.0,034.1,027.1,16.0,0000.0,0001.56,0003.51,0001.39
2023-11-20 04:03:00,SystemResetWarning,0823.0,5.00,000.00,025.8,024.8,000.0,034.1,027.1,16.0,0000.0,0001.55,0003.51,0001.38
2023-11-20 04:04:00,SystemResetWarning,0823.1,5.00,000.00,025.8,024.8,000.0,034.1,027.1,16.0,0000.0,0001.57,0003.51,0001.38
2023-11-20 04:05:00,SystemResetWarning,0823.1,5.00,000.00,025.8,024.8,000.0,034.1,027.1,16.0,0000.0,0001.58,0003.47,0001.39
2023-11-20 04:06:00,SystemResetWarning,0823.1,5.00,000.00,025.8,024.8,000.0,034.1,027.1,16.0,0000.0,0001.59,0003.50,0001.39
2023-11-20 04:07:00,SystemResetWarning,0823.2,4.99,000.00,025.8,024.8,000.0,034.1,027.1,15.9,0000.0,0001.60,0003.51,0001.39
2023-11-20 04:08:00,SystemResetWarning,0823.1,5.00,000.00,025.8,024.8,000.0,034.1,027.1,15.9,0000.0,0001.56,0003.35,0001.38
2023-11-20 04:09:00,SystemResetWarning,0823.1,5.00,000.00,025.8,024.8,000.0,034.1,027.1,15.9,0000.0,0001.56,0003.35,0001.38
2023-11-20 04:10:00,SystemResetWarning,0823.1,5.00,000.00,025.8,024.9,000.0,034.1,027.1,15.9,0000.0,0001.58,0003.01,0001.38
2023-11-20 04:11:00,SystemResetWarning,0823.1,5.00,000.00,025.8,024.9,000.0,034.1,027.1,15.9,0000.0,0001.58,0002.08,0001.39
2023-11-20 04:12:00,SystemResetWarning,0823.2,4.99,000.00,025.8,024.9,000.0,034.1,027.2,15.9,0000.0,0001.60,0002.14,0001.38
2023-11-20 04:13:00,SystemResetWarning,0823.2,5.00,000.00,025.8,024.9,000.0,034.1,027.2,15.9,0000.0,0001.61,0002.14,0001.38
2023-11-20 04:14:00,SystemResetWarning,0823.2,5.01,000.00,025.8,024.9,000.0,034.1,027.2,15.9,0000.0,0001.60,0002.12,0001.38
2023-11-20 04:15:00,SystemResetWarning,0823.2,5.00,000.00,025.8,024.9,000.0,034.1,027.2,15.9,0000.0,0001.60,0002.10,0001.38
2023-11-20 04:16:00,SystemResetWarning,0823.2,5.00,000.00,025.8,024.9,000.0,034.1,027.2,15.9,0000.0,0001.61,0002.14,0001.38
2023-11-20 04:17:00,SystemResetWarning,0823.3,5.00,000.00,025.8,024.9,000.0,034.1,027.2,15.9,0000.0,0001.62,0002.17,0001.38
2023-11-20 04:18:00,SystemResetWarning,0823.3,5.00,000.00,025.8,024.9,000.0,034.1,027.2,15.9,0000.0,0001.66,0002.30,0001.38
2023-11-20 04:19:00,SystemResetWarning,0823.3,5.00,000.00,025.8,024.9,000.0,034.1,027.2,15.9,0000.0,0001.70,0002.66,0001.38
2023-11-20 04:20:00,SystemResetWarning,0823.3,5.00,000.00,025.8,024.9,000.0,034.1,027.2,15.9,0000.0,0001.71,0003.55,0001.37
2023-11-20 04:21:00,SystemResetWarning,0823.3,5.00,000.00,025.8,024.9,000.0,034.1,027.2,15.9,0000.0,0001.70,0003.51,0001.37
2023-11-20 04:22:00,SystemResetWarning,0823.3,4.99,000.00,025.8,024.9,000.0,034.1,027.2,15.9,0000.0,0001.73,0003.71,0001.36
2023-11-20 04:23:00,SystemResetWarning,0823.3,4.99,000.00,025.8,024.9,000.0,034.1,027.2,15.9,0000.0,0001.72,0003.76,0001.37
2023-11-20 04:24:00,SystemResetWarning,0823.3,5.00,000.00,025.8,024.9,000.0,034.1,027.2,15.8,0000.0,0001.71,0003.82,0001.37
2023-11-20 04:25:00,SystemResetWarning,0823.3,5.00,000.00,025.8,024.9,000.0,034.1,027.2,15.8,0000.0,0001.73,0003.92,0001.38
2023-11-20 04:26:00,SystemResetWarning,0823.3,5.00,000.00,025.8,024.9,000.0,034.2,027.2,15.8,0000.0,0001.74,0003.98,0001.38
2023-11-20 04:27:00,SystemResetWarning,0823.3,5.01,000.00,025.8,024.9,000.0,034.2,027.2,15.7,0000.0,0001.75,0004.16,0001.39
2023-11-20 04:28:00,SystemResetWarning,0823.3,5.01,000.00,025.8,024.9,000.0,034.2,027.2,15.7,0000.0,0001.78,0004.30,0001.39
2023-11-20 04:29:00,SystemResetWarning,0823.3,5.00,000.00,025.8,024.9,000.0,034.1,027.2,15.7,0000.0,0001.74,0004.54,0001.39
2023-11-20 04:30:00,SystemResetWarning,0823.3,5.00,000.00,025.9,024.9,000.0,034.1,027.2,15.7,0000.0,0001.73,0004.58,0001.39
2023-11-20 04:31:00,SystemResetWarning,0823.3,5.00,000.00,025.8,024.9,000.0,034.2,027.2,15.7,0000.0,0001.74,0003.76,0001.40
2023-11-20 04:32:00,SystemResetWarning,0823.3,4.99,000.00,025.8,024.8,000.0,034.2,027.2,15.7,0000.0,0001.77,0003.87,0001.41
2023-11-20 04:33:00,SystemResetWarning,0823.3,5.00,000.00,025.8,024.8,000.0,034.2,027.1,15.8,0000.0,0001.78,0003.79,0001.42
2023-11-20 04:34:00,SystemResetWarning,0823.3,5.00,000.00,025.8,024.8,000.0,034.2,027.1,15.8,0000.0,0001.78,0003.77,0001.42
2023-11-20 04:35:00,SystemResetWarning,0823.3,5.01,000.00,025.8,024.7,000.0,034.1,027.1,15.8,0000.0,0001.82,0004.77,0001.43
2023-11-20 04:36:00,SystemResetWarning,0823.3,5.00,000.00,025.8,024.6,000.0,034.1,027.1,15.9,0000.0,0001.82,0005.77,0001.44
2023-11-20 04:37:00,SystemResetWarning,0823.3,5.00,000.00,025.8,024.6,000.0,034.1,027.0,16.0,0000.0,0001.82,0005.79,0001.45
2023-11-20 04:38:00,SystemResetWarning,0823.3,5.00,000.00,025.7,024.6,000.0,034.1,027.0,16.0,0000.0,0001.81,0005.67,0001.45
2023-11-20 04:39:00,SystemResetWarning,0823.3,4.99,000.00,025.7,024.6,000.0,034.1,027.0,16.0,0000.0,0001.78,0005.50,0001.45
2023-11-20 04:40:00,SystemResetWarning,0823.4,5.00,000.00,025.7,024.6,000.0,034.1,027.0,16.0,0000.0,0001.79,0005.41,0001.44
2023-11-20 04:41:00,SystemResetWarning,0823.4,4.99,000.00,025.7,024.6,000.0,034.1,027.0,16.0,0000.0,0001.79,0005.21,0001.45
2023-11-20 04:42:00,SystemResetWarning,0823.4,4.99,000.00,025.7,024.6,000.0,034.1,027.0,16.0,0000.0,0001.79,0005.11,0001.46
2023-11-20 04:43:00,SystemResetWarning,0823.5,5.00,000.00,025.7,024.6,000.0,034.1,027.0,16.0,0000.0,0001.79,0005.08,0001.45
2023-11-20 04:44:00,SystemResetWarning,0823.4,5.00,000.00,025.7,024.5,000.0,034.1,027.0,16.1,0000.0,0001.77,0005.02,0001.45
2023-11-20 04:45:00,SystemResetWarning,0823.4,5.00,000.00,025.7,024.5,000.0,034.1,027.0,16.0,0000.0,0001.79,0005.39,0001.45
2023-11-20 04:46:00,SystemResetWarning,0823.4,5.00,000.00,025.7,024.5,000.0,034.1,027.0,16.0,0000.0,0001.74,0005.13,0001.44
2023-11-20 04:47:00,SystemResetWarning,0823.4,5.00,000.00,025.7,024.5,000.0,034.1,027.0,15.9,0000.0,0001.74,0003.25,0001.44
2023-11-20 04:48:00,SystemResetWarning,0823.4,5.00,000.00,025.7,024.5,000.0,034.1,027.0,16.0,0000.0,0001.75,0003.22,0001.43
2023-11-20 04:49:00,SystemResetWarning,0823.4,5.00,000.00,025.6,024.5,000.0,034.1,027.0,16.1,0000.0,0001.77,0003.20,0001.42
2023-11-20 04:50:00,SystemResetWarning,0823.4,5.00,000.00,025.6,024.5,000.0,034.0,026.9,16.2,0000.0,0001.75,0003.16,0001.42
2023-11-20 04:51:00,SystemResetWarning,0823.4,5.01,000.00,025.6,024.5,000.0,034.0,026.9,16.2,0000.0,0001.73,0002.92,0001.43
2023-11-20 04:52:00,SystemResetWarning,0823.4,5.00,000.00,025.6,024.5,000.0,034.0,026.9,16.1,0000.0,0001.76,0002.83,0001.43
2023-11-20 04:53:00,SystemResetWarning,0823.4,5.00,000.00,025.6,024.4,000.0,034.0,026.9,16.1,0000.0,0001.78,0002.80,0001.44
2023-11-20 04:54:00,SystemResetWarning,0823.5,5.00,000.00,025.6,024.4,000.0,034.0,027.0,16.2,0000.0,0001.78,0003.62,0001.44
2023-11-20 04:55:00,SystemResetWarning,0823.4,5.00,000.00,025.6,024.4,000.0,034.0,026.9,16.4,0000.0,0001.79,0003.88,0001.45
2023-11-20 04:56:00,SystemResetWarning,0823.4,5.00,000.00,025.6,024.4,000.0,034.0,026.9,16.5,0000.0,0001.78,0003.56,0001.45
2023-11-20 04:57:00,SystemResetWarning,0823.4,5.00,000.00,025.6,024.4,000.0,034.0,026.9,16.6,0000.0,0001.77,0003.52,0001.45
2023-11-20 04:58:00,SystemResetWarning,0823.4,5.00,000.00,025.6,024.4,000.0,034.0,026.9,16.5,0000.0,0001.78,0003.51,0001.46
2023-11-20 04:59:00,SystemResetWarning,0823.4,5.00,000.00,025.6,024.4,000.0,034.0,026.9,16.5,0000.0,0001.80,0003.60,0001.47
